Погода Кемь-Порт

Погода Кемь-Порт : погода сейчас, прогноз погоды и архив. Всё, что Вы хотите узнать о погоде Кемь-Порт!

Поиск расширенной информации на нашем сайте:

Другие новости

Новости СМИ2

Главная страница сайта

Новости сайта

03.07.2017

Напоминаем, что на нашем специализированном сайте Метеоцентр.Азия вы можете получить высокодетализированные автоматические прогнозы погоды по пунктам России, СНГ и мира в авиационном формате (включающие направление и скорость ветра, видимость, явления погоды, количество и форму облачности, нижнюю и верхнюю границу облачности).


Погода Кемь-Порт - сегодня

Время (UTC), дата Ветер
(°,м/с) 
Видим.   Явления Облачность Т
(°С)
Тd
(°С)
f(%) Тe
(°С)
Pmin
(гПа)
dP
(гПа)
Po
(мм)
O2
(г/м3)
Тmin Tmax R s Состояние
почвы
00 11.12.17 140 (ЮВ) 7-10{13}  2000 м  слаб. ливневой снег  10/10 240 м кучево-дожд. 
[Cb cap]
-1.3 -1.7 97 -5  1004.2  -0.4  752  305           
03 11.12.17 130 (ЮВ) 4{13}  2000 м  слаб. ливневой снег  10/10 400 м кучево-дожд. 
[Cb cap]
-1.1 -1.8 95 -4  1004.1  -0.1  752  305  -1.6    0.9     
06 11.12.17 150 (ЮВ) 4000 м  слаб. ливневой снег  10/10 400 м кучево-дожд. 
[Cb cap]
-1.3 -1.9 96 -3  1004.7  0.6  753  305      0.9  19  равномерный
сухой снег
100% 
09 11.12.17 140 (ЮВ) 4000 м  слаб. ливневой снег  10/10 240 м кучево-дожд. 
[Cb cap]
-1.2 -1.6 97 -4  1005.4  0.8  753  305           
12 11.12.17 150 (ЮВ) 2000 м  слаб. ливневой снег  10/10 240 м кучево-дожд. 
[Cb cap]
-1.1 -1.4 98 -2  1005.4  -0.1  753  305           
15 11.12.17 160 (Ю) 2000 м  слаб. ливневой снег  10/10 300 м кучево-дожд. 
[Cb cap]
-1.5 -1.8 98 -1  1006.1  0.7  754  306         
18 11.12.17 200 (Ю) 10 км  слаб. ливневой снег  10/10 300 м кучево-дожд. 
[Cb cap]
-1.9 -2.2 98 -1  1007.5  1.4  755  307    -1.1     
21 11.12.17 тихо ()   4000 м  слаб. ливневой снег  10/10 420 м кучево-дожд. 
[Cb cap]
-2 -2.3 98 -2  1008.4  0.8  756  307           
00 12.12.17 090 (В) 10 км  {ливн. осадки}  10/10 600 м 
[Sc]
-0.7 -0.9 99 -2  1007.6  -0.8  755  305           
03 12.12.17 140 (ЮВ) 4000 м  слаб. ливневой снег  10/10 300 м кучево-дожд. 
[Cb cap]
-0.2 -0.5 98 -3  1006.8  -0.7  754  304  -2       
06 12.12.17 140 (ЮВ) 4000 м  слаб. ливневой снег  10/10 420 м кучево-дожд. 
[Cb cap]
-0 -0.2 99 -4  1006.2  -0.6  754  304  -2    21  равномерный
сухой снег
100% 
09 12.12.17 140 (ЮВ) 6{11}  4000 м  слаб. ливневой снег  10/10 300 м кучево-дожд. 
[Cb cap]
+0.1 -0.1 99 -3  1005.7  -0.4  754  304           
12 12.12.17 140 (ЮВ) 5{10}  10 км  {ливн. осадки}  10/10 480 м 
[Sc]
+0.5 -0 96 -2  1004.8  -0.9  753  303           
15 12.12.17 130 (ЮВ) 8-10{11}  10 км    10/10 500 м 
[Sc]
+0.4 -0.2 96 -4  1002.9  -1.9  752  302      0.8     
18 12.12.17 120 (ЮВ) 10-14{14}  10 км  {снег}  10/10 500 м 
[Sc]
+0.1 -1.3 90 -5  998.9  -3.9  749  302    +0.5  0.7     
21 12.12.17 130 (ЮВ) 13-19{19}  10 км    10/10 600 м 
[Sc]
-0.4 -2 89 -6  993.5  -5.4  744  301           
00 13.12.17 130 (ЮВ) 12-19{21}  1000 м  снег  10/10 270 м 
[Frnb|Ns]
-0.9 -1.2 98 -7  988.1  -5.4  740  299           
03 13.12.17 140 (ЮВ) 10-15{18}  1000 м  слаб. снег  10/10 330 м 
[Frnb|Ns]
-0.4 -0.8 97 -5  984.7  -3.4  738  298  -0.9    0.8     
06 13.12.17 150 (ЮВ) 10-14{15}  1000 м  слаб. снег  10/10 300 м 
[Frnb|Ns]
+0.1 -0.4 96 -5  981.8  -2.9  736  296      0.8  22  равномерный
сухой снег
100% 
09 13.12.17 140 (ЮВ) 9-10  20000 м  в посл. час снег  10/10 300 м 
[Frnb|Ns]
+0.5 -0.1 96 -4  980.1  -1.7  734  295           
12 13.12.17 250 (З) 6-10{13}  20000 м  в посл. час дождь{снег}  10/10 300 м верхняя 
[Ns|Ci fib]
+0.3 -2.4 82 -3  981.4  1.3  735  296           
15 13.12.17 230 (ЮЗ) 8-14{15}  20000 м    10/10 500 м 
[Sc]
-0.8 -4.6 75 -5  984.3  2.9  738  299      0.6     
18 13.12.17 230 (ЮЗ) 9-16{17}  20000 м    10/10 600 м 
[Sc]
-1.7 -6.4 70 -7  987.5  3.2  740  301      0.3     
21 13.12.17 210 (ЮЗ) 7-11{17}  20000 м    8/8 600 м 
[Sc]
-1.7 -5 78 -6  989.3  1.8  741  301           
00 14.12.17 210 (ЮЗ) 6-11{13}  20000 м    9/9 600 м 
[Sc]
-2.2 -4.9 82 -6  991.2  1.8  743  302           
Время (UTC), дата Ветер
(°,м/с) 
Видим.   Явления Облачность Т
(°С)
Тd
(°С)
f(%) Тe
(°С)
Pmin
(гПа)
dP
(гПа)
Po
(мм)
O2
(г/м3)
Тmin Tmax R s Состояние
почвы

Для получения пояснительной информации подведите курсор к названию столбца.

ПОГОДА Кемь-Порт - архив

Всё, что Вы хотите узнать о погоде Кемь-Порт - удобно и подробно!

Выберите нужную дату (начиная с 1 января 2015* года) и нажмите кнопку "Найти".
Будут отображены архивные сводки погоды по пункту Кемь-Порт, начиная с указанной даты.


Отображать данные в формате CSV (для использования в таблицах Excel)


Внимание! Наш архив погоды предназначен исключительно для личного некоммерческого использования в познавательных целях. Если Вам необходимы официальные справки о состоянии погоды (для производственных, юридических, коммерческих и т.п. целей), обращайтесь в органы Росгидромета.

*Примечание: данная дата относится к архиву по метеостанциям СССР (Россия, СНГ, Балтия).
Архив по метеостанциям Зарубежной Европы и Азии (кроме Китая) хранится 10 дней, по другим регионам земного шара (Китай, Африка, Америка, Австралия, Океания) - 1 день.

Кемь-Порт - район местоположения метеостанции


Название, широта, долгота, высота метеостанции:
Кемь-Порт 64.98°ш. 34.80°д. 8 м над ур. моря [Российская Федерация]

Дополнительная информация

В oтличие oт бoльшинства пoгoдных сайтoв мы публикуем пoдрoбную метеoинфoрмацию в детальнoм прoфессиoнальнoм фoрмате.

Характеристики температуры и влажнoсти вoздуха измеряются на высoте 2 м в тени вдали oт зданий и деревьев.
Скoрoсть ветра измеряется на высoте 10 м (на урoвне рoста челoвека скoрoсть ветра ниже в 1.5-2 раза). Если метеoстанция нахoдится в гoрoде или в лесу, тo скoрoсть ветра занижена на 2-4 м/с пo сравнению с oткрытым местoм. Скoрoсть ветра над акватoриями крупных рек и oзёр, а также на вершинах хoлмoв на 2-5 м/с выше, чем в oбычных услoвиях.
Атмoсфернoе давление в разных тoчках местнoсти мoжет значительнo oтличаться oт давления на метеoстанции, в зависимoсти oт услoвий рельефа (при пoдъёме на 10 м давление пoнижается примернo на 1 мм рт.ст.).